Weather History for KORH - July, 2013

Change the Weather History Date:

Wednesday, July 24, 2013

  Actual Average Record
Temperature  
Mean Temperature 71 °F 71 °F  
Max Temperature 79 °F 79 °F 94 °F (1910)
Min Temperature 62 °F 62 °F 48 °F (1934)
Degree Days  
Heating Degree Days 0 0  
Month to date heating degree days 0 9  
Since 1 June heating degree days 67 92  
Since 1 July heating degree days 0 9  
Cooling Degree Days 6 6  
Month to date cooling degree days 272 135  
Year to date cooling degree days 399 241  
Since 1 June cooling degree days 375 219  
Growing Degree Days 21 (Base 50)    
Moisture  
Dew Point 63 °F    
Average Humidity 75    
Maximum Humidity 100    
Minimum Humidity 50    
Precipitation  
Precipitation 0.00 in 0.14 in 2.42 in (1988)
Month to date precipitation 2.29 3.23  
Year to date precipitation 29.16 26.65  
Sea Level Pressure  
Sea Level Pressure 29.74 in    
Wind  
Wind Speed 10 mph (WNW)    
Max Wind Speed 18 mph    
Max Gust Speed 23 mph    
Visibility 10 miles    
Events      
T = Trace of Precipitation, MM = Missing Value Source: NWS Daily Summary

Daily Weather History Graph

Daily Weather History Graph

Search for Another Location

Airport or City:

Trip Planner

Search our weather history database for the weather conditions in past years. The results will help you decide how hot, cold, wet, or windy it might be!

Date:

Astronomy

Jul. 24, 2013 Rise Set
Actual Time 5:32 AM EDT 8:14 PM EDT
Civil Twilight 4:59 AM EDT 8:47 PM EDT
Nautical Twilight 4:19 AM EDT 9:28 PM EDT
Astronomical Twilight 3:32 AM EDT 10:14 PM EDT
Moon 9:14 PM EDT (7/24) 7:52 AM EDT (7/24)
Length of Visible Light 15h 47m
Length of Day
14h 42m
Waning Gibbous, 95% of the Moon is Illuminated
Jul 24
Waning Gibbous
Jul 29
Last Quarter
Aug 6
New
Aug 14
First Quarter
Aug 20
Full

Hourly Weather History & Observations

Time (EDT) Temp. Dew Point Humidity Pressure Visibility Wind Dir Wind Speed Gust Speed Precip Events Conditions
12:38 AM 71.1 °F 70.0 °F 96% 29.63 in 10.0 mi WSW 6.9 mph - N/A   Mostly Cloudy
12:54 AM 70.0 °F 70.0 °F 100% 29.62 in 10.0 mi West 6.9 mph - N/A   Scattered Clouds
1:02 AM 70.0 °F 70.0 °F 100% 29.63 in 10.0 mi West 8.1 mph - N/A   Scattered Clouds
1:54 AM 71.1 °F 70.0 °F 96% 29.62 in 10.0 mi West 6.9 mph - N/A   Overcast
2:54 AM 70.0 °F 69.1 °F 97% 29.61 in 10.0 mi West 10.4 mph - N/A   Mostly Cloudy
3:54 AM 70.0 °F 69.1 °F 97% 29.62 in 10.0 mi West 10.4 mph - N/A   Mostly Cloudy
4:54 AM 70.0 °F 68.0 °F 93% 29.62 in 10.0 mi WNW 10.4 mph - N/A   Mostly Cloudy
5:54 AM 70.0 °F 66.9 °F 90% 29.62 in 10.0 mi WNW 6.9 mph - N/A   Mostly Cloudy
6:54 AM 70.0 °F 66.9 °F 90% 29.64 in 10.0 mi WNW 5.8 mph - N/A   Mostly Cloudy
7:54 AM 72.0 °F 66.9 °F 84% 29.66 in 10.0 mi WNW 11.5 mph - N/A   Partly Cloudy
8:54 AM 73.0 °F 66.9 °F 81% 29.68 in 10.0 mi West 12.7 mph - N/A   Clear
9:54 AM 75.9 °F 64.9 °F 69% 29.70 in 10.0 mi WNW 13.8 mph - N/A   Clear
10:54 AM 77.0 °F 64.0 °F 64% 29.72 in 10.0 mi West 13.8 mph - N/A   Clear
11:54 AM 78.1 °F 64.0 °F 62% 29.73 in 10.0 mi WNW 12.7 mph 21.9 mph N/A   Scattered Clouds
12:08 PM 78.1 °F 64.9 °F 64% 29.75 in 10.0 mi WNW 12.7 mph - N/A   Mostly Cloudy
12:17 PM 77.0 °F 64.0 °F 64% 29.75 in 10.0 mi WNW 10.4 mph - N/A   Scattered Clouds
12:54 PM 75.9 °F 63.0 °F 64% 29.75 in 10.0 mi WNW 12.7 mph - N/A   Mostly Cloudy
1:54 PM 78.1 °F 62.1 °F 58% 29.74 in 10.0 mi WNW 11.5 mph 20.7 mph N/A   Mostly Cloudy
2:54 PM 78.1 °F 60.1 °F 54% 29.76 in 10.0 mi WNW 15.0 mph - N/A   Partly Cloudy
3:54 PM 77.0 °F 57.9 °F 52% 29.78 in 10.0 mi West 11.5 mph - N/A   Clear
4:54 PM 77.0 °F 60.1 °F 56% 29.78 in 10.0 mi WNW 10.4 mph - N/A   Partly Cloudy
5:54 PM 75.9 °F 57.9 °F 54% 29.80 in 10.0 mi WNW 11.5 mph - N/A   Clear
6:54 PM 73.9 °F 57.9 °F 57% 29.82 in 10.0 mi WNW 6.9 mph - N/A   Clear
7:54 PM 72.0 °F 60.1 °F 66% 29.85 in 10.0 mi WNW 6.9 mph - N/A   Clear
8:54 PM 69.1 °F 57.9 °F 68% 29.89 in 10.0 mi NNW 11.5 mph - N/A   Partly Cloudy
9:54 PM 68.0 °F 57.9 °F 70% 29.91 in 10.0 mi North 5.8 mph - N/A   Mostly Cloudy
10:12 PM 66.9 °F 57.0 °F 70% 29.94 in 10.0 mi NNE 6.9 mph - N/A   Overcast
10:54 PM 64.9 °F 55.0 °F 70% 29.94 in 10.0 mi NNE 9.2 mph - N/A   Mostly Cloudy
11:54 PM 64.0 °F 53.1 °F 67% 29.97 in 10.0 mi NNE 10.4 mph 17.3 mph N/A   Overcast